Weather Service Report


581 
ASUS46 KSTO 230209
RWRCA 

NORTHERN AND CENTRAL CA REGIONAL WEATHER ROUNDUP
NATIONAL WEATHER SERVICE SACRAMENTO CA 
600 PM PST SAT NOV 22 2014

NOTE: FAIR INDICATES FEW OR NO CLOUDS BELOW 12,000 FEET WITH NO
SIGNIFICANT WEATHER AND/OR OBSTRUCTIONS TO VISIBILITY.

CAZ001-003-230300-
NORTHWEST AREA
  
CITY           SKY/WX    TMP DP  RH WIND       PRES   REMARKS
CRESCENT CITY  CLOUDY    53  50  89 SE3       30.24R                  
ARCATA         NOT AVBL                                               
SHELTER COVE   NOT AVBL                                               
UKIAH          CLEAR     55  46  71 N6        30.20R                  
$$

CAZ006-505>513-230300-
BAY AREA
  
CITY           SKY/WX    TMP DP  RH WIND       PRES   REMARKS
SANTA ROSA     PTCLDY    55  45  68 NW6       30.16R                  
SAN RAFAEL     N/A       63  MM  MM MISG
NAPA           CLEAR     58  46  64 NW7       30.15R                  
CONCORD        CLEAR     62  49  62 W6        30.15R                  
OAKLAND CITY   N/A       62  MM  MM MISG
OAKLAND        PTCLDY    59  53  80 NW7       30.15R                  
SAN FRAN CITY  N/A       60  MM  74 MISG
SAN FRAN ARPT  PTCLDY    60  55  83 W14       30.16R                  
LIVERMORE      CLEAR     60  53  77 SW5       30.14R                  
HAYWARD        CLEAR     58  54  86 NW7       30.15R                  
REDWOOD CITY   N/A       MM  MM  MM MISG
MOFFETT ARPT   CLEAR     60  54  80 NW6       30.16R                  
SAN JOSE ARPT  PTCLDY    56  52  86 W6        30.15R                  
$$
CAZ034-037-514>518-230300-
CENTRAL COAST
  
CITY           SKY/WX    TMP DP  RH WIND       PRES   REMARKS
WATSONVILLE    CLEAR     60  58  92 NW3       30.16R                  
SALINAS        CLOUDY    61  57  87 CALM      30.15S                  
MONTEREY       LGT RAIN  59  56  89 W7        30.16S                  
PT PIEDRAS BLS NOT AVBL                                               
SAN LUIS OBISP CLOUDY    61  59  93 N10       30.09S                  
SANTA MARIA    CLOUDY    63  59  87 NW10      30.08F                  
$$
CAZ015-016-230300-
NORTHERN SACRAMENTO VALLEY
  
CITY           SKY/WX    TMP DP  RH WIND       PRES   REMARKS
REDDING        MOCLDY    55  39  54 NW8       30.15R                  
RED BLUFF      MOCLDY    57  40  52 W8        30.16R                  
OROVILLE       PTCLDY    54  52  93 CALM      30.18R FOG              
$$
CAZ016>018-230300-
SOUTHERN SACRAMENTO VALLEY
  
CITY           SKY/WX    TMP DP  RH WIND       PRES   REMARKS
AUBURN           N/A     48  48 100 CALM      30.17R VSB 1/4          
BEALE AFB      PTCLDY    53  53 100 CALM      30.16R                  
LINCOLN        FAIR      52  50  93 CALM      30.16R                  
MARYSVILLE     FOG       50  50 100 CALM      30.18R VSB 1/4          
SAC INTL ARPT  MOCLDY    55  52  89 E5        30.16R                  
MATHER AIRPORT MOCLDY    57  57 100 CALM      30.16R                  
DOWNTOWN SAC   N/A       56  MM  MM MISG
SAC EXEC ARPT  MOCLDY    57  54  88 E5        30.17R                  
VACAVILLE      CLEAR     60  52  74 N10       30.17R                  
TRAVIS AFB     CLEAR     57  57 100 N9        30.14R                  
$$
CAZ019>021-230300-
SAN JOAQUIN VALLEY
  
CITY           SKY/WX    TMP DP  RH WIND       PRES   REMARKS
STOCKTON       CLEAR     55  53  93 SE5       30.13S                  
MODESTO        PTCLDY    55  52  89 CALM      30.14R FOG              
MERCED         CLEAR     54  51  90 CALM      30.13R FOG              
LEMOORE        PTCLDY    55  32  41 N8        30.12S                  
FRESNO         PTCLDY    57  50  77 NW6       30.13S                  
HANFORD        MOCLDY    60  48  64 N6        30.12R                  
PORTERVILLE    CLOUDY    61  48  63 N6        30.12R                  
BAKERSFIELD    CLOUDY    64  44  48 NW6       30.08F                  
$$
CAZ011-012-071-230300-
NORTHERN MOUNTAINS
  
CITY           SKY/WX    TMP DP  RH WIND       PRES   REMARKS
YREKA          MOCLDY    42  35  76 W10       30.20R                  
MOUNT SHASTA   MOCLDY    43  31  62 N6        30.16R                  
ALTURAS        CLEAR     37  29  72 W14       30.13R WCI  28          
$$
CAZ011-012-071-230300-
SIERRA NEVADA MTNS
  
CITY           SKY/WX    TMP DP  RH WIND       PRES   REMARKS
BLUE CANYON    MOCLDY    37  33  85 CALM      30.18R                  
TRUCKEE        CLOUDY    36  30  80 W8        30.15R WCI  29          
TAHOE VLY ARPT CLOUDY    40  29  64 VRB3      30.14R                  
MAMMOTH LAKES  FAIR      43  21  42 W24       30.10F                  
$$
  

Return to Home page


Western Regional Climate Center, wrcc@dri.edu